EW1917 Weather Reports


Display with metric or nautical units.
time (UTC)temp
F
wind
direction
speed
MPH
gust
MPH
rain 1hr
in
rain 24hr
in
rain mn
in
humidity
%
barometer
mb
20260507070756 54 290 0.0 2.0 0.00 0.25 0.00 95 1012.6
20260507070250 54 290 0.0 3.0 0.00 0.25 0.00 96 1012.5
20260507065754 54 279 1.0 2.0 0.00 0.25 0.00 95 1012.5
20260507065256 54 285 2.0 3.0 0.00 0.25 0.00 96 1012.4
20260507064750 54 273 2.0 3.0 0.00 0.25 0.00 96 1012.4
20260507064253 54 288 2.0 3.0 0.00 0.25 0.00 96 1012.4
20260507063750 54 269 1.0 1.0 0.00 0.25 0.00 96 1012.4
20260507063253 54 269 0.0 1.0 0.00 0.25 0.00 96 1012.3
20260507062756 54 263 0.0 2.0 0.00 0.25 0.00 96 1012.3
20260507062253 54 254 1.0 3.0 0.00 0.25 0.00 96 1012.4
20260507061751 54 204 0.0 1.0 0.00 0.26 0.00 96 1012.3
20260507061253 53 204 0.0 2.0 0.00 0.26 0.00 96 1012.2
20260507060755 53 173 0.0 2.0 0.00 0.28 0.00 96 1012.2
20260507060256 53 174 0.0 0.0 0.00 0.29 0.00 96 1012.1
20260507055753 53 173 0.0 1.0 0.00 0.29 0.00 96 1012.1
20260507055252 53 173 0.0 2.0 0.00 0.32 0.00 96 1012.2
20260507054753 53 173 1.0 2.0 0.00 0.32 0.00 96 1012.1
20260507054253 53 277 0.0 0.0 0.00 0.32 0.00 96 1012.1
20260507053750 53 277 0.0 0.0 0.00 0.32 0.00 96 1012.1
20260507053250 53 277 0.0 0.0 0.00 0.32 0.00 96 1012.0
20260507052750 52 277 0.0 1.0 0.00 0.32 0.00 96 1012.0
20260507052250 52 277 0.0 2.0 0.00 0.32 0.00 96 1012.0
20260507051753 53 275 2.0 3.0 0.00 0.32 0.00 95 1011.9
20260507051250 53 179 0.0 1.0 0.00 0.32 0.00 96 1011.9
20260507050753 53 250 0.0 0.0 0.00 0.32 0.00 96 1011.8
20260507050253 53 250 0.0 0.0 0.00 0.32 0.00 96 1011.7
20260507045753 53 250 0.0 1.0 0.00 0.32 0.00 96 1011.7
20260507045250 53 250 0.0 2.0 0.00 0.32 0.00 96 1011.7
20260507044753 53 250 1.0 2.0 0.00 0.32 0.00 96 1011.7
20260507044256 52 126 0.0 1.0 0.00 0.32 0.00 96 1011.6
20260507043754 52 126 0.0 1.0 0.00 0.32 0.00 96 1011.6
20260507043256 52 126 1.0 3.0 0.00 0.32 0.00 95 1011.6
20260507042759 52 84 0.0 2.0 0.00 0.32 0.00 95 1011.6
20260507042250 52 87 1.0 2.0 0.00 0.32 0.00 95 1011.5
20260507041753 52 126 0.0 2.0 0.00 0.33 0.00 95 1011.5
20260507041256 52 126 1.0 2.0 0.00 0.33 0.00 96 1011.5
20260507040751 52 126 1.0 2.0 0.00 0.33 0.00 95 1011.4
20260507040254 52 126 0.0 1.0 0.00 0.33 0.00 95 1011.5
20260507035750 52 126 0.0 0.0 0.00 0.33 0.00 95 1011.5
20260507035251 52 126 0.0 1.0 0.00 0.33 0.00 95 1011.5
20260507034753 52 126 0.0 0.0 0.00 0.33 0.00 95 1011.5
20260507034253 52 126 0.0 2.0 0.00 0.33 0.00 95 1011.4
20260507033756 52 157 2.0 2.0 0.00 0.35 0.00 95 1011.4
20260507033253 52 279 0.0 2.0 0.00 0.37 0.00 95 1011.4
20260507032753 52 345 1.0 2.0 0.00 0.39 0.00 95 1011.3
20260507032250 52 355 1.0 2.0 0.00 0.42 0.00 95 1011.3
20260507031750 52 355 0.0 2.0 0.00 0.49 0.00 95 1011.3
20260507031250 52 282 0.0 1.0 0.00 0.53 0.00 95 1011.3
20260507030756 52 275 1.0 3.0 0.00 0.61 0.00 95 1011.3
20260507030254 52 111 0.0 4.0 0.00 0.65 0.00 95 1011.2
20260507025750 52 165 1.0 2.0 0.00 0.73 0.00 95 1011.3
20260507025257 52 281 1.0 1.0 0.00 0.78 0.00 95 1011.3
20260507024750 52 282 1.0 4.0 0.00 0.81 0.00 95 1011.3
20260507024250 52 142 1.0 5.0 0.00 0.85 0.00 95 1011.3
20260507023750 52 136 3.0 4.0 0.00 0.88 0.00 95 1011.2
20260507023251 52 142 2.0 2.0 0.00 0.90 0.00 95 1011.3
20260507022753 52 162 0.0 2.0 0.00 0.92 0.00 95 1011.4
20260507022256 52 162 0.0 2.0 0.00 0.95 0.00 95 1011.4
20260507021753 52 162 1.0 1.0 0.00 0.99 0.00 95 1011.4
20260507021250 52 162 1.0 2.0 0.00 1.03 0.00 95 1011.4
20260507020753 52 148 0.0 4.0 0.00 1.13 0.00 95 1011.4
20260507020253 52 244 0.0 2.0 0.00 1.19 0.00 95 1011.5
20260507015756 53 279 1.0 1.0 0.00 1.20 0.00 95 1011.4
20260507015254 53 283 0.0 1.0 0.00 1.21 0.00 95 1011.4
20260507014753 53 283 1.0 2.0 0.00 1.21 0.00 95 1011.4
20260507014253 53 283 2.0 2.0 0.00 1.22 0.00 95 1011.3
20260507013754 53 283 0.0 1.0 0.00 1.22 0.00 95 1011.3
20260507013250 53 283 0.0 2.0 0.00 1.22 0.00 95 1011.3
20260507012751 53 283 0.0 2.0 0.00 1.23 0.00 95 1011.4
20260507012256 53 283 0.0 0.0 0.00 1.24 0.00 95 1011.3
20260507011756 53 283 0.0 0.0 0.00 1.25 0.00 95 1011.4
20260507011251 53 283 0.0 1.0 0.00 1.25 0.00 95 1011.4
20260507010750 53 283 0.0 0.0 0.00 1.26 0.00 95 1011.4
20260507010253 53 283 0.0 1.0 0.00 1.27 0.00 95 1011.4
20260507005750 53 283 0.0 1.0 0.00 1.28 0.00 94 1011.4
20260507005254 54 283 0.0 1.0 0.00 1.30 0.00 94 1011.4
20260507004750 54 283 0.0 0.0 0.00 1.33 0.00 94 1011.3
20260507004250 54 283 0.0 0.0 0.00 1.42 0.00 94 1011.4
20260507003753 54 283 0.0 0.0 0.00 1.54 0.00 95 1011.4
20260507003250 54 283 0.0 1.0 0.00 1.54 0.00 94 1011.4
20260507002757 54 283 0.0 1.0 0.00 1.54 0.00 94 1011.5
20260507002250 54 283 0.0 1.0 0.00 1.54 0.00 94 1011.4
20260507001751 54 283 0.0 1.0 0.00 1.55 0.00 94 1011.4
20260507001253 54 283 0.0 1.0 0.00 1.55 0.00 94 1011.5
20260507000757 54 283 0.0 0.0 0.00 1.55 0.00 94 1011.5
20260507000251 55 283 0.0 1.0 0.00 1.55 0.00 94 1011.6
20260506235801 55 283 0.0 1.0 0.00 1.55 0.00 94 1011.6
20260506235250 55 283 0.0 0.0 0.00 1.55 0.00 94 1011.6
20260506234756 55 283 0.0 0.0 0.00 1.55 0.00 94 1011.6
20260506234254 55 283 0.0 1.0 0.00 1.66 0.00 94 1011.5
20260506233750 55 279 0.0 2.0 0.00 1.70 0.00 94 1011.5
20260506233250 55 298 1.0 2.0 0.00 1.73 0.00 94 1011.5
20260506232750 55 311 1.0 4.0 0.00 1.74 0.00 94 1011.4
20260506232250 55 313 1.0 4.0 0.01 1.74 0.00 94 1011.5
20260506231750 55 139 0.0 3.0 0.01 1.74 0.00 94 1011.5
20260506231250 55 172 2.0 5.0 0.02 1.74 0.00 94 1011.5
20260506230750 55 65 0.0 1.0 0.03 1.74 0.00 93 1011.6
20260506230254 55 9 0.0 1.0 0.03 1.74 0.00 93 1011.7
20260506225754 55 9 0.0 1.0 0.03 1.74 0.00 93 1011.6
20260506225251 55 9 1.0 2.0 0.03 1.74 0.00 93 1011.5
20260506224750 55 9 0.0 0.0 0.02 1.74 0.00 93 1011.4
20260506224253 55 9 0.0 0.0 0.02 1.74 0.00 93 1011.4
20260506223753 55 9 0.0 0.0 0.02 1.74 0.00 93 1011.4
20260506223250 55 9 0.0 2.0 0.02 1.74 0.00 93 1011.5
20260506222753 56 5 2.0 4.0 0.02 1.74 0.00 92 1011.4
20260506222250 56 320 1.0 3.0 0.01 1.74 0.00 92 1011.6
20260506221752 56 277 2.0 7.0 0.01 1.74 0.00 92 1011.5
20260506221253 56 146 1.0 4.0 0.00 1.73 0.00 92 1011.5
20260506220750 56 168 4.0 7.0 0.00 1.72 0.00 92 1011.6
20260506220250 56 184 1.0 3.0 0.00 1.72 0.00 92 1011.5
20260506215757 56 157 3.0 4.0 0.00 1.72 0.00 92 1011.5
20260506215250 56 170 1.0 3.0 0.00 1.72 0.00 92 1011.5
20260506214753 56 180 0.0 1.0 0.02 1.72 0.00 92 1011.4
20260506214253 56 180 0.0 1.0 0.03 1.72 0.00 91 1011.4
20260506213756 56 165 0.0 4.0 0.03 1.72 0.00 91 1011.4
20260506213251 56 159 1.0 4.0 0.03 1.72 0.00 91 1011.4
20260506212750 56 167 0.0 5.0 0.03 1.72 0.00 91 1011.3
20260506212251 56 135 0.0 4.0 0.03 1.72 0.00 91 1011.4
20260506211750 56 182 3.0 3.0 0.03 1.72 0.00 90 1011.4
20260506211253 56 192 2.0 4.0 0.03 1.72 0.00 90 1011.3
20260506210750 57 165 2.0 5.0 0.03 1.72 0.00 90 1011.3
20260506210300 57 152 1.0 6.0 0.02 1.71 0.00 90 1011.3
20260506205750 57 161 1.0 7.0 0.02 1.71 0.00 89 1011.2
20260506205250 57 133 3.0 6.0 0.02 1.71 0.00 89 1011.2
20260506204753 57 173 7.0 8.0 0.00 1.70 0.00 88 1011.2
20260506204250 58 163 4.0 7.0 0.00 1.69 0.00 87 1011.2
20260506203750 58 157 3.0 6.0 0.00 1.69 0.00 86 1011.2
20260506203250 58 156 3.0 7.0 0.00 1.69 0.00 86 1011.1
20260506202759 58 171 0.0 6.0 0.00 1.69 0.00 85 1011.1
20260506202250 58 151 5.0 7.0 0.00 1.69 0.00 85 1011.0
20260506201756 58 155 3.0 5.0 0.00 1.69 0.00 85 1011.0
20260506201253 58 154 0.0 4.0 0.00 1.69 0.00 84 1010.9
20260506200750 58 139 2.0 6.0 0.00 1.72 0.00 84 1010.8
20260506200253 58 142 0.0 5.0 0.00 1.79 0.00 84 1010.8
20260506195753 58 165 4.0 4.0 0.00 1.86 0.00 83 1010.7
20260506195254 58 175 0.0 6.0 0.00 1.91 0.00 83 1010.6
20260506194753 58 216 1.0 5.0 0.00 1.95 0.00 82 1010.7
20260506194250 58 156 3.0 4.0 0.00 1.97 0.00 81 1010.6
20260506193800 58 214 3.0 14.0 0.00 1.97 0.00 81 1010.4
20260506193256 58 174 2.0 8.0 0.00 1.97 0.00 81 1010.3
20260506192752 59 212 1.0 7.0 0.00 1.97 0.00 80 1010.2
20260506192253 59 135 2.0 9.0 0.00 1.97 0.00 79 1010.0
20260506191750 59 265 1.0 6.0 0.00 1.97 0.00 78 1009.9
20260506191250 59 265 2.0 10.0 0.00 1.97 0.00 78 1009.8
20260506190753 59 169 2.0 10.0 0.00 1.97 0.00 78 1009.8
20260506190250 59 211 1.0 10.0 0.00 1.97 0.00 79 1009.7
20260506185750 59 184 5.0 10.0 0.00 1.97 0.00 79 1009.7
20260506185250 59 155 2.0 12.0 0.00 1.98 0.00 79 1009.6
20260506184750 59 216 1.0 6.0 0.00 1.98 0.00 79 1009.4
20260506184256 59 171 0.0 8.0 0.00 1.98 0.00 79 1009.4
20260506183759 59 198 2.0 6.0 0.00 1.98 0.00 78 1009.3
20260506183250 59 327 1.0 9.0 0.00 1.98 0.00 78 1009.3
20260506182753 59 169 2.0 8.0 0.00 1.98 0.00 78 1009.3
20260506182251 59 148 4.0 8.0 0.00 1.99 0.00 78 1009.3
20260506181750 59 123 1.0 4.0 0.00 1.99 0.00 79 1009.2
20260506181255 60 208 1.0 3.0 0.00 1.99 0.00 79 1009.1
20260506180753 60 242 0.0 7.0 0.00 1.99 0.00 78 1009.1
20260506180250 60 263 1.0 4.0 0.00 1.99 0.00 78 1009.1
20260506175756 60 262 3.0 7.0 0.00 1.99 0.00 78 1009.0
20260506175259 60 128 2.0 10.0 0.00 1.99 0.00 77 1009.0
20260506174750 60 198 0.0 7.0 0.00 1.99 0.00 77 1008.9
20260506174250 60 216 1.0 8.0 0.00 1.99 0.00 76 1008.9
20260506173757 60 103 2.0 8.0 0.00 1.99 0.00 76 1008.8
20260506173256 60 128 2.0 10.0 0.00 2.01 0.00 75 1008.8
20260506172750 61 179 9.0 11.0 0.00 2.03 0.00 74 1008.7
20260506172301 61 141 2.0 10.0 0.00 2.05 0.00 74 1008.8
20260506171750 61 161 4.0 13.0 0.00 2.05 0.00 73 1008.8
20260506171253 61 217 2.0 9.0 0.00 2.06 0.00 75 1008.6
20260506170750 61 192 2.0 11.0 0.00 2.06 0.00 75 1008.6
20260506170253 61 38 2.0 8.0 0.00 2.06 0.00 77 1008.6
20260506165757 61 234 2.0 10.0 0.00 2.06 0.00 75 1008.6
20260506165253 62 281 0.0 6.0 0.00 2.06 0.00 78 1008.6
20260506164750 62 273 1.0 6.0 0.00 2.06 0.00 76 1008.6
20260506164250 62 230 6.0 11.0 0.00 2.07 0.00 76 1008.6
20260506163759 63 236 1.0 9.0 0.00 2.07 0.00 76 1008.7
20260506163253 64 242 6.0 15.0 0.00 2.07 0.00 75 1008.4
20260506162753 64 297 5.0 7.0 0.00 2.07 0.00 77 1008.5
20260506162250 64 190 4.0 8.0 0.00 2.07 0.00 78 1008.5
20260506161750 64 144 2.0 14.0 0.00 2.11 0.00 80 1008.5
20260506161256 63 272 1.0 10.0 0.00 2.18 0.00 82 1008.4
20260506160750 62 246 4.0 10.0 0.00 2.22 0.00 82 1008.6
20260506160253 62 247 3.0 9.0 0.00 2.23 0.00 83 1008.4
20260506155750 62 280 4.0 7.0 0.00 2.23 0.00 86 1008.6
20260506155250 62 252 3.0 9.0 0.00 2.23 0.00 85 1008.5
20260506154753 62 169 1.0 8.0 0.00 2.23 0.00 85 1008.4
20260506154253 62 92 2.0 11.0 0.00 2.23 0.00 85 1008.3
20260506153753 62 219 1.0 9.0 0.00 2.23 0.00 86 1008.3
20260506153250 62 271 3.0 14.0 0.00 2.23 0.00 88 1008.3
20260506152750 61 255 3.0 5.0 0.00 2.23 0.00 88 1008.1
20260506152259 61 190 4.0 6.0 0.00 2.23 0.00 88 1008.1
20260506151750 61 157 3.0 5.0 0.00 2.23 0.00 88 1008.1
20260506151254 61 171 0.0 10.0 0.00 2.23 0.00 88 1008.4
20260506150756 61 159 2.0 13.0 0.00 2.23 0.00 87 1008.4
20260506150250 61 270 8.0 14.0 0.00 2.23 0.00 87 1008.5
20260506145753 62 244 10.0 10.0 0.00 2.23 0.00 89 1008.3
20260506145250 62 231 1.0 10.0 0.00 2.23 0.00 88 1008.4
20260506144753 61 215 1.0 7.0 0.00 2.23 0.00 89 1008.2
20260506144250 61 180 1.0 7.0 0.00 2.23 0.00 88 1008.4
20260506143753 61 174 1.0 10.0 0.00 2.23 0.00 87 1008.2
20260506143250 62 184 2.0 6.0 0.00 2.23 0.00 89 1008.3
20260506142750 61 260 3.0 9.0 0.00 2.23 0.00 88 1008.4
20260506142250 61 192 0.0 9.0 0.00 2.23 0.00 89 1008.5
20260506141750 61 211 1.0 5.0 0.01 2.25 0.00 90 1008.5
20260506141250 60 165 7.0 11.0 0.02 2.25 0.00 90 1008.5
20260506140756 59 118 2.0 11.0 0.06 2.25 0.00 89 1008.7
20260506140250 59 213 0.0 15.0 0.14 2.25 0.00 89 1008.7
20260506135753 59 177 6.0 11.0 0.16 2.25 0.00 89 1008.7
20260506135256 58 188 9.0 9.0 0.18 2.25 0.00 89 1008.8
20260506134751 58 161 4.0 8.0 0.18 2.25 0.00 89 1008.8
20260506134259 58 167 4.0 10.0 0.18 2.25 0.00 88 1008.8
20260506133750 59 163 7.0 14.0 0.18 2.25 0.00 88 1008.8
20260506133253 59 233 2.0 5.0 0.18 2.25 0.00 90 1008.9
20260506132750 59 224 3.0 7.0 0.18 2.25 0.00 89 1008.9
20260506132250 59 132 2.0 9.0 0.18 2.25 0.00 89 1008.7
20260506131756 59 215 0.0 8.0 0.17 2.24 0.00 88 1008.7
20260506131250 59 246 5.0 16.0 0.16 2.23 0.00 87 1008.7
20260506130753 60 169 5.0 9.0 0.12 2.19 0.00 85 1008.8
20260506130250 61 161 1.0 18.0 0.04 2.11 0.00 85 1008.8
20260506125753 63 270 13.0 16.0 0.02 2.10 0.00 84 1008.7
20260506125250 64 265 11.0 15.0 0.00 2.08 0.00 83 1008.2
20260506124817 64 322 3.0 14.0 0.00 2.10 0.00 82 1008.0
20260506124250 64 188 5.0 14.0 0.00 2.11 0.00 82 1008.0
20260506123750 64 119 2.0 12.0 0.00 2.11 0.00 82 1008.2
20260506123256 64 187 4.0 9.0 0.00 2.11 0.00 81 1008.1
20260506122750 65 173 2.0 17.0 0.00 2.12 0.00 81 1008.0
20260506122250 64 162 11.0 16.0 0.00 2.12 0.00 81 1007.8
20260506121750 64 181 8.0 18.0 0.00 2.12 0.00 81 1008.0
20260506121253 64 181 5.0 13.0 0.00 2.12 0.00 83 1008.2
20260506120753 64 238 3.0 20.0 0.00 2.12 0.00 82 1007.8
20260506120253 64 197 5.0 15.0 0.00 2.12 0.00 82 1008.1
20260506115753 64 240 2.0 20.0 0.00 2.12 0.00 81 1008.0
20260506115253 64 183 1.0 23.0 0.00 2.13 0.00 83 1008.1
20260506114753 64 183 11.0 14.0 0.00 2.13 0.00 83 1008.1
20260506114250 64 173 2.0 16.0 0.00 2.13 0.00 84 1008.3
20260506113756 63 276 4.0 14.0 0.00 2.14 0.00 84 1008.2
20260506113259 63 171 6.0 13.0 0.00 2.14 0.00 84 1008.1
20260506112756 62 236 4.0 15.0 0.00 2.15 0.00 85 1008.1
20260506112253 62 227 2.0 21.0 0.00 2.17 0.00 85 1008.2
20260506111750 62 192 7.0 15.0 0.00 2.19 0.00 84 1008.1
20260506111250 62 184 7.0 15.0 0.00 2.22 0.00 84 1008.3
20260506110750 62 148 5.0 15.0 0.00 2.30 0.00 83 1008.0
20260506110257 63 127 5.0 16.0 0.00 2.38 0.00 83 1008.3
20260506105751 63 123 3.0 19.0 0.00 2.38 0.00 83 1008.4
20260506105256 63 145 12.0 12.0 0.00 2.38 0.00 83 1008.4
20260506104750 64 251 3.0 20.0 0.00 2.38 0.00 83 1008.5
20260506104250 64 185 7.0 11.0 0.00 2.38 0.00 84 1008.5
20260506103750 63 159 5.0 14.0 0.00 2.38 0.00 85 1008.5
20260506103250 63 86 5.0 13.0 0.00 2.38 0.00 84 1008.7
20260506102751 62 279 6.0 21.0 0.00 2.38 0.00 84 1008.8
20260506102253 62 158 5.0 17.0 0.00 2.38 0.00 84 1008.7
20260506101750 62 273 12.0 17.0 0.00 2.38 0.00 84 1008.5
20260506101251 62 236 3.0 23.0 0.00 2.38 0.00 84 1008.7
20260506100753 62 150 9.0 17.0 0.00 2.39 0.00 85 1008.6
20260506100253 62 169 5.0 19.0 0.00 2.40 0.00 86 1008.7
20260506095750 61 129 4.0 16.0 0.00 2.40 0.00 87 1008.8
20260506095254 60 217 10.0 20.0 0.00 2.41 0.00 87 1008.8
20260506094750 60 246 10.0 12.0 0.00 2.44 0.00 88 1008.8
20260506094250 60 103 6.0 20.0 0.00 2.45 0.00 89 1008.8
20260506093759 59 157 1.0 17.0 0.00 2.56 0.00 89 1008.8
20260506093253 59 157 10.0 15.0 0.00 2.59 0.00 90 1008.8
20260506092759 59 203 13.0 22.0 0.00 2.59 0.00 91 1009.0
20260506092250 59 168 1.0 15.0 0.00 2.59 0.00 91 1008.8
20260506091751 59 207 7.0 19.0 0.00 2.59 0.00 91 1008.5
20260506091256 59 179 2.0 13.0 0.00 2.59 0.00 92 1008.7
20260506090753 59 150 11.0 21.0 0.00 2.59 0.00 93 1008.7
20260506090250 59 222 8.0 18.0 0.00 2.59 0.00 93 1008.7
20260506085754 59 193 9.0 13.0 0.00 2.59 0.00 94 1008.8
20260506085253 59 201 7.0 9.0 0.00 2.59 0.00 94 1008.8
20260506084755 59 170 0.0 9.0 0.00 2.59 0.00 94 1008.8
20260506084256 59 172 2.0 15.0 0.00 2.59 0.00 94 1008.8
20260506083750 59 250 5.0 14.0 0.00 2.60 0.00 94 1008.9
20260506083250 59 163 1.0 10.0 0.00 2.62 0.00 93 1009.0
20260506082750 59 173 6.0 9.0 0.00 2.64 0.00 93 1008.9
20260506082256 59 84 3.0 17.0 0.00 2.66 0.00 93 1008.8
20260506081753 59 298 4.0 14.0 0.00 2.66 0.00 93 1008.7
20260506081253 59 241 5.0 21.0 0.00 2.66 0.00 93 1008.5
20260506080756 59 205 6.0 13.0 0.00 2.66 0.00 93 1008.6
20260506080250 59 65 2.0 8.0 0.00 2.66 0.00 94 1008.8
20260506073250 58 164 6.0 18.0 0.00 2.66 0.00 94 1008.5
20260506072750 58 161 5.0 10.0 0.00 2.66 0.00 94 1008.6
20260506072259 58 198 2.0 17.0 0.00 2.66 0.00 94 1008.6
20260506071756 58 229 3.0 14.0 0.00 2.67 0.00 94 1008.6
20260506071253 58 170 10.0 12.0 0.00 2.67 0.00 94 1008.5